星链-6198 (STARLINK-6198 )

导读 | 星芒AI

STARLINK-6198 是 SpaceX Starlink 项目中的一颗低轨通信卫星,属于第61批发射的星链卫星群。该卫星于2023年发射,部署在约550公里高度的近地轨道,主要用于提供全球宽带互联网服务。它采用先进的相控阵天线和激光通信技术,支持高速、低延迟的网络连接。作为星链星座的一部分,STARLINK-6198 有助于扩大卫星互联网覆盖范围,特别是在偏远和网络基础设施薄弱的地区。

基本信息
目录编号:
56768
目录名称:
STARLINK-6198
国际标识:
2023-078B
轨道中心:
EARTH
卫星名称:
星链-6198
卫星全名:
星链-6198 (STARLINK-6198 )
卫星状态:
在轨 (已飞行935 天)
发射日期:
2023-05-31 UTC
国别 :
美国 (US)
星等 :
--
轨道信息
数据来源 国际轨道数据
星历时间: 2025-12-21T19:46:10+0800
7小时前
查看轨道信息
半长轴: 6950.211km
偏心率: 0.0002694
轨道倾角: 69.999°
近地点辐角 271.732°
升交点赤经 161.486°
平近点角 88.353°
近地点: 570.201km
远地点: 573.947km
周期: 96.107分钟
每日圈数: 14.983242
详细信息
固有亮度:
5
最大亮度:
2.5
卫星平台:
Starlink v1.5
覆盖范围:
全球
运营商:
太空探索技术公司
运营商所在国:
美国
制造商(研发单位):
太空探索技术公司
制造商所在国:
美国
使用方式:
暂无
卫星简介
星链(Starlink)计划是由太空探索技术公司(SpaceX)提出的一个巨型低轨卫星互联网星座项目,计划在2019年至2024年间在太空搭建由约1.2万颗卫星组成的“星链”网络,其中1584颗将部署在地球上空550千米处的近地轨道,并从2020年开始工作。该卫星仍在工作。
2D轨道图
3D轨道图
轨道高度分析图
轨道倾角分析图
轨道综合分析图
查看轨道综合分析图